(21624) = 1999 NA1 = 1983 CR = 1990 RO11

Discovered at Visnjan on 1999-07-11 by K. Korlevic.

Orbit

Orbit type: Main Belt

Note: WebGL enabled browser required.

epoch2024-03-31.0
epoch JD2460400.5
perihelion date2023-06-23.37684
perihelion JD2460118.87684
argument of perihelion (°)266.27374
ascending node (°)130.12607
inclination (°)16.28918
eccentricity0.1506138
perihelion distance (AU)2.3492749
Tisserand w.r.t. Jupiter3.3
ΔV w.r.t. Earth (km/sec)10.9
semimajor axis (AU)2.7658502
mean anomaly (°)60.34333
mean daily motion (°/day)0.21426980
aphelion distance (AU)3.182
period (years)4.6
P-vector [x]0.77426715
P-vector [y]0.63209831
P-vector [z]-0.03101770
Q-vector [x]-0.59541099
Q-vector [y]0.74418579
Q-vector [z]0.30277592
absolute magnitude13.53
phase slope0.15
uncertainty0
referenceMPEC 2024-F50
observations used3724
oppositions23
arc length (days)15008
first opposition used1983
last opposition used2024
residual rms (arc-secs)0.54
perturbers coarse indicatorM-v
perturbers precise indicator003Ek
first observation date used1983-02-15.0
last observation date used2024-03-19.0
computer nameMPCLINUX
JD of orbit computation2456966.706741
perihelion JD uncertainty (days)8.7447E-05
argument of perihelion uncertainty (°)2.3634E-05
ascending node uncertainty (°)1.5765E-05
inclination uncertainty (°)5.2096E-06
eccentricity uncertainty 4.0038E-08
perihelion distance uncertainty (AU)1.1299E-07
Minimum Orbit Intersection Distances (in AU)
for orbit epoch: 2460400.5, reference: E2024-G04
Mercury2.02989
Venus1.65551
Earth1.42223
Mars0.99183
Jupiter2.36369
Saturn6.39411
Uranus15.4584
Neptune27.4809

Observations

3770 total observations over interval: 1983 02 15.26319 – 2024 03 19.262906
These data are available for download (format description).

Date (UT) J2000 RA J2000 Dec Magn Location Ref
1983 02 15.26319 09 08 56.39 +19 52 52.4 17.0   688 – Lowell Observatory, Anderson Mesa Station MPC 7756
1983 02 15.29375 09 08 54.73 +19 53 04.8   688 – Lowell Observatory, Anderson Mesa Station MPC 7756
1990 09 14.27604 22 35 48.80 -23 01 17.9 17.5   675 – Palomar Mountain MPC 18964
1990 09 14.31354 22 35 47.13 -23 01 41.2   675 – Palomar Mountain MPC 18964
1998 04 24.38329 15 39 59.70 +04 14 41.7 19.1   704 – Lincoln Laboratory ETS, New Mexico MPS 22242
1998 04 24.40209 15 39 58.80 +04 14 46.4 19.2   704 – Lincoln Laboratory ETS, New Mexico MPS 22242
1998 04 24.42085 15 39 58.08 +04 14 55.1 19.3   704 – Lincoln Laboratory ETS, New Mexico MPS 22242
1998 05 23.26825 15 17 09.42 +05 40 30.5 18.8   704 – Lincoln Laboratory ETS, New Mexico MPS 22242
1998 05 23.28766 15 17 08.52 +05 40 30.6 19.4   704 – Lincoln Laboratory ETS, New Mexico MPS 22242
1998 05 23.30715 15 17 07.61 +05 40 32.0 19.3   704 – Lincoln Laboratory ETS, New Mexico MPS 22242
1998 05 23.32664 15 17 06.65 +05 40 31.1 18.9   704 – Lincoln Laboratory ETS, New Mexico MPS 22242
1998 05 23.34610 15 17 05.79 +05 40 32.8 18.9   704 – Lincoln Laboratory ETS, New Mexico MPS 22242
1999 07 11.91781 21 13 03.29 -14 13 49.3 18.3   120 – Visnjan MPS 5643
1999 07 11.94453 21 13 02.45 -14 14 02.0   120 – Visnjan MPS 5643
1999 07 11.96940 21 13 01.71 -14 14 14.2   120 – Visnjan MPS 5643
1999 07 12.91319 21 12 31.49 -14 21 46.6 18.0   120 – Visnjan MPS 5643
1999 07 12.92866 21 12 30.92 -14 21 54.1   120 – Visnjan MPS 5643
1999 07 12.94657 21 12 30.38 -14 22 02.2   120 – Visnjan MPS 5643
1999 07 13.35429 21 12 16.82 -14 25 19.9 17.7   704 – Lincoln Laboratory ETS, New Mexico MPS 5643
1999 07 13.36675 21 12 16.40 -14 25 25.9 18.4   704 – Lincoln Laboratory ETS, New Mexico MPS 5643
1999 07 13.37910 21 12 15.89 -14 25 31.5 18.8   704 – Lincoln Laboratory ETS, New Mexico MPS 5643
1999 07 13.39152 21 12 15.51 -14 25 38.4 18.0   704 – Lincoln Laboratory ETS, New Mexico MPS 5643
1999 07 13.40390 21 12 15.06 -14 25 44.1 18.0   704 – Lincoln Laboratory ETS, New Mexico MPS 5643
1999 07 15.95125 21 10 46.79 -14 46 53.3 17.8   120 – Visnjan MPS 5643
1999 07 15.97267 21 10 45.99 -14 47 04.4   120 – Visnjan MPS 5643
1999 07 15.99536 21 10 45.21 -14 47 16.6   120 – Visnjan MPS 5643
1999 07 16.29391 21 10 34.34 -14 49 47.5 17.7   704 – Lincoln Laboratory ETS, New Mexico MPS 5643
1999 07 16.30662 21 10 33.86 -14 49 53.7 17.6   704 – Lincoln Laboratory ETS, New Mexico MPS 5643
1999 07 16.31937 21 10 33.37 -14 50 00.3 17.7   704 – Lincoln Laboratory ETS, New Mexico MPS 5643
1999 07 16.93376 21 10 10.79 -14 55 15.9 18.3   120 – Visnjan MPS 5643
1999 07 16.94682 21 10 10.27 -14 55 22.9   120 – Visnjan MPS 5643
1999 07 16.96082 21 10 09.73 -14 55 30.1   120 – Visnjan MPS 5643
1999 07 18.91794 21 08 54.68 -15 12 34.2 18.0   120 – Visnjan MPS 5643
1999 07 18.93771 21 08 53.90 -15 12 45.7   120 – Visnjan MPS 5643
1999 08 07.21419 20 54 01.84 -18 16 35.4 16.4 R 699 – Lowell Observatory-LONEOS MPS 6071
1999 08 07.23962 20 54 00.56 -18 16 50.0   699 – Lowell Observatory-LONEOS MPS 6071
1999 08 07.26507 20 53 59.30 -18 17 05.3   699 – Lowell Observatory-LONEOS MPS 6071
1999 09 03.19024 20 34 51.15 -22 10 54.8 17.2 R 699 – Lowell Observatory-LONEOS MPS 6071
1999 09 03.20554 20 34 50.70 -22 11 01.2   699 – Lowell Observatory-LONEOS MPS 6071
1999 09 03.22084 20 34 50.22 -22 11 07.2   699 – Lowell Observatory-LONEOS MPS 6071
1999 09 06.88975 20 33 14.43 -22 35 37.2   595 – Farra d'Isonzo MPS 6071
1999 09 06.90086 20 33 14.11 -22 35 40.3   595 – Farra d'Isonzo MPS 6071
1999 09 07.21928 20 33 06.88 -22 37 42.2 17.8   704 – Lincoln Laboratory ETS, New Mexico MPS 6071
1999 09 07.23186 20 33 06.54 -22 37 48.6 18.1   704 – Lincoln Laboratory ETS, New Mexico MPS 6071
1999 09 07.25707 20 33 05.92 -22 37 56.9 18.0   704 – Lincoln Laboratory ETS, New Mexico MPS 6071
1999 09 07.26940 20 33 05.53 -22 38 02.1 17.9   704 – Lincoln Laboratory ETS, New Mexico MPS 6071
1999 09 07.93552 20 32 50.79 -22 42 12.3 18.3 V 595 – Farra d'Isonzo MPS 6071
1999 09 07.95065 20 32 50.45 -22 42 17.9   595 – Farra d'Isonzo MPS 6071
1999 09 11.19173 20 31 48.61 -23 01 32.1 17.6   704 – Lincoln Laboratory ETS, New Mexico MPS 6071
1999 09 11.20623 20 31 48.35 -23 01 36.8 17.9   704 – Lincoln Laboratory ETS, New Mexico MPS 6071
1999 09 11.22070 20 31 48.21 -23 01 42.8 19.3   704 – Lincoln Laboratory ETS, New Mexico MPS 6071
1999 09 11.23517 20 31 47.80 -23 01 47.4 17.5   704 – Lincoln Laboratory ETS, New Mexico MPS 6071
1999 09 11.24947 20 31 47.54 -23 01 51.9 17.6   704 – Lincoln Laboratory ETS, New Mexico MPS 6071
2000 11 26.39164 06 25 45.52 +04 39 16.9 17.1   704 – Lincoln Laboratory ETS, New Mexico MPS 22242
2000 11 26.40735 06 25 44.95 +04 39 17.7 17.5   704 – Lincoln Laboratory ETS, New Mexico MPS 22242
2000 11 26.43734 06 25 43.72 +04 39 20.8 19.3   704 – Lincoln Laboratory ETS, New Mexico MPS 22242
2000 11 26.45217 06 25 43.24 +04 39 20.4 17.5   704 – Lincoln Laboratory ETS, New Mexico MPS 22242
2000 11 28.14158 06 24 40.65 +04 41 04.8 17.1   106 – Crni Vrh MPS 22242
2000 11 28.16123 06 24 39.86 +04 41 06.3 17.5   106 – Crni Vrh MPS 22242
2000 11 28.18078 06 24 39.09 +04 41 07.2 17.4   106 – Crni Vrh MPS 22242
2001 01 15.13321 05 44 10.30 +09 11 07.2   715 – Jornada Observatory, Las Cruces MPS 24916
2001 01 15.13792 05 44 10.10 +09 11 09.6   715 – Jornada Observatory, Las Cruces MPS 24916
2001 01 15.14453 05 44 09.86 +09 11 13.2   715 – Jornada Observatory, Las Cruces MPS 24916
2001 01 21.16964 05 40 53.06 +10 05 23.1 17.4   704 – Lincoln Laboratory ETS, New Mexico MPS 24916
2001 01 21.18648 05 40 52.41 +10 05 32.7 17.4   704 – Lincoln Laboratory ETS, New Mexico MPS 24916
2001 01 21.20404 05 40 51.94 +10 05 41.9 17.5   704 – Lincoln Laboratory ETS, New Mexico MPS 24916
2001 01 21.22209 05 40 51.40 +10 05 51.9 17.5   704 – Lincoln Laboratory ETS, New Mexico MPS 24916
2001 01 21.23967 05 40 50.87 +10 06 01.3 17.5   704 – Lincoln Laboratory ETS, New Mexico MPS 24916
2001 02 01.17690 05 37 30.76 +11 46 08.6 16.6   704 – Lincoln Laboratory ETS, New Mexico MPS 24916
2001 02 01.19164 05 37 30.57 +11 46 16.5 16.9   704 – Lincoln Laboratory ETS, New Mexico MPS 24916
2001 02 01.20725 05 37 30.44 +11 46 25.0 16.9   704 – Lincoln Laboratory ETS, New Mexico MPS 24916
2001 02 01.22331 05 37 30.26 +11 46 33.7 16.6   704 – Lincoln Laboratory ETS, New Mexico MPS 24916
2001 02 17.21371 05 38 54.92 +14 07 53.6 18.0   704 – Lincoln Laboratory ETS, New Mexico MPS 27451
2001 02 17.22903 05 38 55.18 +14 08 01.0 18.4   704 – Lincoln Laboratory ETS, New Mexico MPS 27451
2001 02 17.24377 05 38 55.40 +14 08 10.0 18.7   704 – Lincoln Laboratory ETS, New Mexico MPS 27451
2001 02 17.25940 05 38 55.79 +14 08 16.0 18.8   704 – Lincoln Laboratory ETS, New Mexico MPS 27451
2001 02 17.27388 05 38 56.04 +14 08 23.9 18.2   704 – Lincoln Laboratory ETS, New Mexico MPS 27451
2001 02 20.15167 05 39 57.00 +14 32 27.3 18.2   704 – Lincoln Laboratory ETS, New Mexico MPS 27451
2001 02 20.16556 05 39 57.27 +14 32 34.1 18.6   704 – Lincoln Laboratory ETS, New Mexico MPS 27451
2001 02 20.17946 05 39 57.60 +14 32 40.5 18.5   704 – Lincoln Laboratory ETS, New Mexico MPS 27451
2001 02 20.19335 05 39 57.89 +14 32 47.3 18.3   704 – Lincoln Laboratory ETS, New Mexico MPS 27451
2001 02 20.20724 05 39 58.22 +14 32 54.1 18.6   704 – Lincoln Laboratory ETS, New Mexico MPS 27451
2001 03 15.13786 05 55 13.40 +17 22 34.5 18.3   704 – Lincoln Laboratory ETS, New Mexico MPS 29297
2001 03 15.15076 05 55 14.04 +17 22 39.6 18.3   704 – Lincoln Laboratory ETS, New Mexico MPS 29297
2001 03 15.16377 05 55 14.68 +17 22 44.7 18.7   704 – Lincoln Laboratory ETS, New Mexico MPS 29297
2001 03 18.11339 05 58 00.48 +17 41 20.9 18.3   704 – Lincoln Laboratory ETS, New Mexico MPS 29297
2001 03 18.12717 05 58 01.31 +17 41 27.8 18.8   704 – Lincoln Laboratory ETS, New Mexico MPS 29297
2001 03 18.14091 05 58 02.12 +17 41 31.7 18.3   704 – Lincoln Laboratory ETS, New Mexico MPS 29297
2001 03 18.15368 05 58 02.84 +17 41 35.6 18.0   704 – Lincoln Laboratory ETS, New Mexico MPS 29297
2001 03 18.16644 05 58 03.55 +17 41 40.2 18.2   704 – Lincoln Laboratory ETS, New Mexico MPS 29297
